NIMBUS 2 DEB, 32475

Orbit data source: Space-Track

NIMBUS 2 DEB, 32475 is space debris in SSO originally from a launch on Sun, 15 May 1966 UTC launched from the Air Force Western Test Range (AFWTR). Debris objects in space refer to the collection of defunct objects orbiting the Earth. Examples of debris include non-operational satellites, rocket bodies, and fragments generated from explosions, collisions, or faulty payload assembly.

Loading next visibility...
Identifier
32475, 1966-040AS
Orbit
SSO
Country
Flag of USUS
Related business
Manufacturer
Unknown
Mission
Spacecraft
Bus & Motor
Unknown
Mass
Unknown
Launch date (UTC)
1966-05-15 (59 years ago)
Launch vehicle
Unknown
Launch site
Air Force Western Test Range (AFWTR)
Object type
Payload
Rocket body
Debris
Shape & HBR
Unknown shape, 0.1 m
Radar Cross Section
Small (<0.1 m²)

Expand to show TLE details & history
Last TLE update: 15 hours ago

TLE from 15 hours ago
0 NIMBUS 2 DEB
1 32475U 66040AS  25290.81026010  .00004412  00000-0  61539-2 0  9990
2 32475 100.5417 297.4840 0058429 329.3471 206.8203 13.57512277895511
Epoch: 2025-10-17T19:26Z
TLE epoch observation values (Epoch: 2025-10-17T19:26:46.472Z)
Latitude
3.97526°
Longitude
159.97726°
Altitude
1,085.848 km
Speed
7.29 km/s
True Right ascension
07h 52m 53s
True Declination
3° 57' 09"
Sunlit
Object was in daylight at epoch
Visualization orbit readout
Latitude
Unknown
Longitude
Unknown
Altitude
Unknown
Speed
Unknown
Apparent Right ascension
Unknown
Apparent Declination
Unknown
Sunlit
N/A
Visualization observer readout
Local Sidereal Time
04:54:28
Azimuth
Unknown
Elevation
Unknown
Doppler factor
Unknown
Orbital elements
Apogee altitude
1,085.439 km
Perigee altitude
998.728 km
Semi-major axis
7,420.22 km
Eccentricity
0.00584
Inclination
100.5417°
RAAN
297.484°
Arg. of periapsis
329.3471°
True anomaly
206.52016°
Mean anomaly
206.8203°
Eccentric anomaly
206.67004°
Mean motion
3.39561 °/min
Orbital period
106.02 mins
BSTAR
0.0061539
Loading maneuver chart data...
Computing Atmospheric mass density...
Loading historical data...
Loading historical data...
Loading historical data...
Loading historical data...
Loading historical data...
Loading historical data...
Loading historical data...

Documentation

Showing up to 5 results
|